Meteo Giornale » Osservazioni meteo Antille Olandesi » Flamingo Bonaire
ore: 05:55 - Osservazioni Meteo Flamingo Bonaire
Lat. 12° 9' N Lon. 68° 17' W Alt. 6 metri s.l.m.
29 °C
Poco Nuvoloso
Temp. 24 Ore
29 °C
33 °C
Est
27.8 Km/h
Dew point 25 °C
Umidità 79 %
Visibilità 10 Km
Il sole sorge alle ore 06:22
Il sole tramonta alle ore 18:43
| Data e Ora | Cielo e Fenomeni | T °C | DP °C | Um. % | Pres. hPa | Vis. km | Vento km/h | |
|---|---|---|---|---|---|---|---|---|
| Oggi h: 05:55 | Poco Nuvoloso | 29 | 25 | 79 | 1011 | 10 | E 27.8 | |
| Oggi h: 04:55 | Nuvoloso | 29 | 25 | 79 | 1011 | 10 | E 27.8 | |
| Oggi h: 03:55 | Molto Nuvoloso | 29 | 25 | 79 | 1011 | 10 | E 24 | |
| Oggi h: 02:55 | Molto Nuvoloso | 29 | 25 | 79 | 1012 | 10 | E 24 | |
| Oggi h: 01:55 | Nuvoloso | 29 | 25 | 79 | 1012 | 10 | E 24 | |
| Oggi h: 00:55 | Nuvoloso | 29 | 25 | 79 | 1013 | 10 | E 24 | |
| Ieri h: 23:55 | Nuvoloso | 29 | 25 | 79 | 1013 | 10 | E 25.9 | |
| Ieri h: 22:55 | Poco Nuvoloso | 29 | 25 | 79 | 1014 | 10 | E 27.8 | |
| Ieri h: 21:55 | Poco Nuvoloso | 29 | 25 | 79 | 1014 | 10 | E 27.8 | |
| Ieri h: 20:55 | Poco Nuvoloso | 29 | 25 | 79 | 1013 | 10 | E 31.5 | |
| Ieri h: 19:55 | Nuvoloso | 29 | 25 | 79 | 1012 | 10 | E 31.5 | |
| Ieri h: 18:55 | Poco Nuvoloso | 29 | 25 | 79 | 1011 | 10 | E 31.5 | |
| Ieri h: 17:55 | Nuvoloso | 30 | 25 | 74 | 1010 | 10 | E 33.3 | |
| Ieri h: 16:55 | Poco Nuvoloso | 32 | 25 | 66 | 1010 | 10 | E 33.3 | |
| Ieri h: 15:55 | Poco Nuvoloso | 32 | 24 | 62 | 1010 | 10 | E/SE 25.9 | |
| Ieri h: 14:55 | Poco Nuvoloso | 33 | 24 | 59 | 1010 | 10 | E 31.5 | |
| Ieri h: 13:55 | Poco Nuvoloso | 32 | 24 | 62 | 1011 | 10 | E/SE 31.5 | |
| Ieri h: 12:55 | Nuvoloso | 33 | 25 | 62 | 1012 | 10 | E 31.5 | |
| Ieri h: 11:55 | Poco Nuvoloso | 32 | 25 | 66 | 1013 | 10 | E/SE 29.6 | |
| Ieri h: 10:55 | Poco Nuvoloso | 32 | 25 | 66 | 1013 | 10 | E 33.3 | |
| Ieri h: 09:55 | Poco Nuvoloso | 32 | 26 | 70 | 1013 | 10 | E 31.5 | |
| Ieri h: 09:35 | Nuvoloso | 31 | 26 | 74 | 1013 | 10 | E/SE 29.6 | |
| Ieri h: 08:55 | Pioggia | 31 | 26 | 74 | 1013 | 10 | E 33.3 | |
| Ieri h: 08:15 | Pioggia nelle vicinanze | 29 | 25 | 79 | 1012 | 10 | E/SE 25.9 | |
| Ieri h: 07:55 | Poco Nuvoloso | 29 | 25 | 79 | 1012 | 10 | E/SE 24 | |
| Ieri h: 07:41 | Nuvoloso | 29 | 25 | 79 | 1012 | 10 | E/SE 24 | |



